Weather History for Salinas, CA

Change the Weather History Date:

Saturday, May 3, 2014

  Actual Average Record
Temperature  
Mean Temperature 58 °F 58 °F  
Max Temperature 65 °F 68 °F 88 °F (2013)
Min Temperature 51 °F 49 °F 34 °F (1933)
Degree Days  
Heating Degree Days 7 7  
Month to date heating degree days 8 21  
Since 1 July heating degree days 1811 2410  
Cooling Degree Days 0 0  
Month to date cooling degree days 7 0  
Year to date cooling degree days 23 7  
Growing Degree Days 8 (Base 50)    
Moisture  
Dew Point 50 °F    
Average Humidity 78    
Maximum Humidity 100    
Minimum Humidity 56    
Precipitation  
Precipitation 0.00 in 0.01 in 0.45 in (1932)
Month to date precipitation 0.00 0.05  
Year to date precipitation 4.91 8.33  
Since 1 July precipitation 5.85 12.44  
Sea Level Pressure  
Sea Level Pressure 30.05 in    
Wind  
Wind Speed 10 mph (West)    
Max Wind Speed 18 mph    
Max Gust Speed 25 mph    
Visibility 6 miles    
Events Fog    
T = Trace of Precipitation, MM = Missing Value Source: NWS Daily Summary

Daily Weather History Graph

Daily Weather History Graph

Search for Another Location

Airport:

Trip Planner

Search our weather history database for the weather conditions in past years. The results will help you decide how hot, cold, wet, or windy it might be!

Date:

Astronomy

May. 03, 2014 Rise Set
Actual Time 6:10 AM PDT 7:56 PM PDT
Civil Twilight 5:42 AM PDT 8:24 PM PDT
Nautical Twilight 5:08 AM PDT 8:58 PM PDT
Astronomical Twilight 4:33 AM PDT 9:34 PM PDT
Moon 9:46 AM PDT (5/3) No Moon Set
Length of Visible Light 14h 42m
Length of Day
13h 46m
Waxing Crescent, 20% of the Moon is Illuminated
May 3
Waxing Crescent
May 6
First Quarter
May 14
Full
May 21
Last Quarter
May 28
New

Hourly Weather History & Observations

Time (PDT) Temp. Dew Point Humidity Pressure Visibility Wind Dir Wind Speed Gust Speed Precip Events Conditions
12:53 AM 54.0 °F 50.0 °F 86% 30.07 in 10.0 mi NW 9.2 mph - N/A   Clear
1:53 AM 53.1 °F 50.0 °F 89% 30.07 in 10.0 mi NNW 5.8 mph - N/A   Clear
2:29 AM 53.6 °F 50.0 °F 88% 30.03 in 2.0 mi WNW 5.8 mph - N/A   Scattered Clouds
2:32 AM 51.8 °F 51.8 °F 100% 30.03 in 1.0 mi West 5.8 mph - N/A   Mist
2:39 AM 51.8 °F 51.8 °F 100% 30.03 in 0.8 mi WNW 5.8 mph - N/A   Mist
2:45 AM 51.8 °F 51.8 °F 100% 30.03 in 2.0 mi NW 5.8 mph - N/A   Mostly Cloudy
3:21 AM 51.8 °F 51.8 °F 100% 30.03 in 2.0 mi NW 4.6 mph - N/A   Overcast
3:53 AM 52.0 °F 51.1 °F 97% 30.06 in 1.5 mi NW 4.6 mph - N/A   Overcast
4:21 AM 51.8 °F 51.8 °F 100% 30.03 in 0.5 mi WNW 6.9 mph - N/A Fog Fog
4:53 AM 52.0 °F 51.1 °F 97% 30.06 in 0.5 mi West 5.8 mph - N/A Fog Fog
5:53 AM 53.1 °F 52.0 °F 96% 30.05 in 0.8 mi WNW 8.1 mph - N/A   Mist
6:53 AM 52.0 °F 51.1 °F 97% 30.06 in 0.5 mi WNW 5.8 mph - N/A Fog Fog
7:40 AM 51.8 °F 51.8 °F 100% 30.04 in 1.0 mi WNW 5.8 mph - N/A   Overcast
7:53 AM 52.0 °F 51.1 °F 97% 30.07 in 1.2 mi WNW 9.2 mph - N/A   Overcast
8:27 AM 53.6 °F 51.8 °F 94% 30.04 in 3.0 mi West 9.2 mph - N/A   Overcast
8:53 AM 55.0 °F 51.1 °F 86% 30.07 in 10.0 mi WNW 6.9 mph - N/A   Overcast
9:20 AM 57.2 °F 51.8 °F 82% 30.04 in 10.0 mi WNW 5.8 mph - N/A   Scattered Clouds
9:53 AM 60.1 °F 51.1 °F 72% 30.06 in 10.0 mi West 9.2 mph - N/A   Clear
10:53 AM 63.0 °F 51.1 °F 65% 30.06 in 10.0 mi West 9.2 mph - N/A   Clear
11:53 AM 63.0 °F 50.0 °F 63% 30.05 in 10.0 mi West 12.7 mph - N/A   Clear
1:53 PM 62.1 °F 48.9 °F 62% 30.06 in 10.0 mi West 12.7 mph 20.7 mph N/A   Clear
2:53 PM 64.0 °F 48.0 °F 56% 30.05 in 10.0 mi WSW 16.1 mph 21.9 mph N/A   Clear
3:53 PM 64.0 °F 48.0 °F 56% 30.04 in 10.0 mi WSW 13.8 mph - N/A   Clear
4:53 PM 63.0 °F 48.0 °F 58% 30.04 in 10.0 mi SW 12.7 mph 21.9 mph N/A   Clear
5:53 PM 62.1 °F 48.0 °F 60% 30.04 in 10.0 mi SW 15.0 mph - N/A   Clear
6:53 PM 60.1 °F 46.9 °F 62% 30.03 in 10.0 mi WSW 15.0 mph - N/A   Clear
7:53 PM 59.0 °F 46.9 °F 64% 30.03 in 10.0 mi SW 10.4 mph - N/A   Clear
8:53 PM 57.0 °F 46.0 °F 67% 30.04 in 10.0 mi SSW 8.1 mph - N/A   Clear
9:53 PM 55.9 °F 46.9 °F 72% 30.06 in 10.0 mi SSW 12.7 mph - N/A   Clear
10:53 PM 55.9 °F 48.0 °F 75% 30.07 in 10.0 mi SSW 8.1 mph - N/A   Clear
11:53 PM 55.0 °F 48.0 °F 77% 30.07 in 10.0 mi SW 8.1 mph - N/A   Clear